Find Starlink 33816

NORAD ID: 63677 Int'l Des: 2025-085 Owner: SPXS Country: US Constellation: starlink operational
LEOCIRCULAR

現在のビュー

3D地球を読み込み中...

About Starlink 33816

Starlink 33816 (NORAD 63677) is a starlink constellation satellite (v2 mini) launched Apr 28, 2025 by SPXS of US. It operates in LEO, CIRCULAR orbit with a mass of 575.00 kg.

Starlink 33816について

説明を読み込み中...

次回通過

Passes for default location (London). Set your location on the main map for personalized predictions.

高度履歴

Loading altitude history...

軌道要素

1 63677U 25085P 26171.05483516 .00012482 00000-0 46214-3 0 9995
2 63677 43.0038 172.9615 0001749 278.6765 81.3889 15.27593971 64626
Epoch: Jun 20, 2026 • Age: 27 hours

現在のステータス

高度 484.0 km
速度 7.62 km/s
衛星直下点 -10.52°S, 172.98°W
打ち上げ日 Apr 28, 2025
運用期間 1.1 years
タイプ internet

技術仕様

分類 Payload
質量 575.00 kg
乾燥質量 530.00 kg
総質量 575.00 kg
長さ 0.30 m
直径 4.10 m
スパン 29.00 m
形状 Box + pan
製造者 SPXS
バスタイプ Starlink V2MO
フェーズステータス In Orbit
所有者/国 SPXS/US

Most Searched